Погода в Больших Туралах

Россия / Омская область     56°45′10″N   73°59′43″E
темп.,
°C
ветер,
м/с
пор.,
м/с
влажн.,
%
обл.,
%
осадки,
мм/ч
давл.,
гПа
погр.,
м
14 апреля, ср
ср1400:00+1зюз4119556 0.0 1034192
03:00+2зюз4129738 0.0 1032230
06:00+2зюз51492100 0.0 1031279
09:00+3зюз716100100 0.0 1028385
12:00+4зюз717100100 0.0 1026476
15:00+5з513100100 0.0 1026381
18:00+6з49100100 0.0 1026165
21:00+4зсз22100100 0.1 102728
15 апреля, чт
чт1500:00+3зюз11100100 0.1 102718
03:00+3ююз23100100 0.0 102672
06:00+3ю36100100 0.0 1025109
09:00+4юз39100100 0.0 1024207
12:00+11з598813 0.0 1022505
15:00+14з58775 0.0 1021752
18:00+14зюз510745 0.0 1019454
21:00+11юз5149061 0.0 1018266
16 апреля, пт
пт1600:00+10зюз5148535 0.0 1016301
03:00+8зюз513885 0.0 1014268
06:00+7зюз4129040 0.0 1014234
09:00+9з51087100 0.0 1014478
12:00+5с5992100 0.1 1017673
15:00+6с5877100 0.2 10201170
18:00+5с6866100 0.4 10221381
21:00+1ссв596796 0.0 1025731
17 апреля, сб
сб1700:00−1св48670 0.0 1026642
03:00−2всв46675 0.0 1025625
06:00−3вюв346585 0.0 1025535
09:00−1ююв335297 0.0 1023742
12:00+2юз3544100 0.0 10201215
15:00+5зюз584489 0.0 10171953
18:00+5з71261100 0.0 10131473
21:00+1сз4118689 1.9 1014672
18 апреля, вс
вс1800:00−1ссз612785 2.0 1016625
03:00−3ссз3676100 0.0 1016538
06:00−4с247068 0.0 1017369
09:00−3всв3351100 0.0 1015508
12:00−1в2241100 0.2 1014968
15:000всв3546100 0.4 10141322
18:000ссв6740100 0.4 10151719
21:00−3ссв6114562 0.0 1017974